Location: Narrabri
(30.3170°S, 149.7830°E)
Time: 21:29:28
(UTC+11:00)

Envisat - Pass Details

Date: 10 October 2017
Orbit: 764 x 766 km, 98.2° (Epoch: 11 December)

Event Time Altitude Azimuth Distance (km) Brightness Sun altitude
Rises 20:38:58 0° 151° (SSE) 3,257 6.2 -19.9°
Reaches altitude 10° 20:41:43 10° 138° (SE) 2,323 5.3 -20.4°
Enters shadow 20:42:11 12° 134° (SE) 2,183 5.1 -20.5°
